| time (UTC) | temp F | wind direction | speed knots | gust knots | rain 1hr in | rain 24hr in | rain mn in | humidity % | barometer mb |
| 20260904174020 | 82 | 72 | 4.3 | 7.8 | 0.00 | 0.00 | 0.00 | 44 | 1016.7 |
| 20260904173517 | 82 | 88 | 3.5 | 7.8 | 0.00 | 0.00 | 0.00 | 44 | 1016.6 |
| 20260904173019 | 82 | 63 | 3.5 | 8.7 | 0.00 | 0.00 | 0.00 | 44 | 1016.4 |
| 20260904172516 | 82 | 360 | 1.7 | 8.7 | 0.00 | 0.00 | 0.00 | 44 | 1016.3 |
| 20260904172016 | 83 | 82 | 3.5 | 10.4 | 0.00 | 0.00 | 0.00 | 44 | 1016.4 |
| 20260904171518 | 83 | 98 | 2.6 | 10.4 | 0.00 | 0.00 | 0.00 | 45 | 1016.3 |
| 20260904171016 | 83 | 55 | 6.1 | 10.4 | 0.00 | 0.00 | 0.00 | 44 | 1016.3 |
| 20260904170514 | 83 | 40 | 7.0 | 10.4 | 0.00 | 0.00 | 0.00 | 43 | 1016.2 |
| 20260904170015 | 84 | 68 | 7.0 | 10.4 | 0.00 | 0.00 | 0.00 | 41 | 1016.1 |
| 20260904165516 | 84 | 82 | 4.3 | 10.4 | 0.00 | 0.00 | 0.00 | 39 | 1016.0 |
| 20260904165015 | 84 | 44 | 5.2 | 12.2 | 0.00 | 0.00 | 0.00 | 38 | 1015.9 |
| 20260904164514 | 84 | 13 | 8.7 | 12.2 | 0.00 | 0.00 | 0.00 | 38 | 1016.0 |
| 20260904164017 | 85 | 59 | 7.0 | 14.8 | 0.00 | 0.00 | 0.00 | 39 | 1016.0 |
| 20260904163513 | 85 | 5 | 8.7 | 14.8 | 0.00 | 0.00 | 0.00 | 39 | 1016.0 |
| 20260904163014 | 85 | 59 | 6.1 | 13.9 | 0.00 | 0.00 | 0.00 | 39 | 1016.0 |
| 20260904162514 | 85 | 44 | 7.0 | 13.0 | 0.00 | 0.00 | 0.00 | 39 | 1016.0 |
| 20260904162014 | 85 | 24 | 7.8 | 14.8 | 0.00 | 0.00 | 0.00 | 39 | 1015.9 |
| 20260904161513 | 85 | 5 | 9.6 | 15.6 | 0.00 | 0.00 | 0.00 | 39 | 1015.9 |
| 20260904161016 | 86 | 349 | 8.7 | 20.9 | 0.00 | 0.00 | 0.00 | 39 | 1015.9 |
| 20260904160514 | 86 | 28 | 13.0 | 20.9 | 0.00 | 0.00 | 0.00 | 39 | 1015.9 |
| 20260904160013 | 86 | 5 | 9.6 | 21.7 | 0.00 | 0.00 | 0.00 | 39 | 1015.8 |
| 20260904155512 | 86 | 355 | 12.2 | 21.7 | 0.00 | 0.00 | 0.00 | 39 | 1015.7 |
| 20260904155012 | 86 | 5 | 11.3 | 20.0 | 0.00 | 0.00 | 0.00 | 38 | 1015.6 |
| 20260904154512 | 87 | 29 | 12.2 | 20.0 | 0.00 | 0.00 | 0.00 | 38 | 1015.6 |
| 20260904154015 | 87 | 55 | 10.4 | 18.2 | 0.00 | 0.00 | 0.00 | 39 | 1015.6 |
| 20260904153511 | 87 | 355 | 10.4 | 19.1 | 0.00 | 0.00 | 0.00 | 39 | 1015.6 |
| 20260904153018 | 87 | 19 | 13.0 | 19.1 | 0.00 | 0.00 | 0.00 | 40 | 1015.5 |
| 20260904152510 | 87 | 17 | 8.7 | 16.5 | 0.00 | 0.00 | 0.00 | 39 | 1015.6 |
| 20260904152010 | 87 | 14 | 7.8 | 18.2 | 0.00 | 0.00 | 0.00 | 38 | 1015.4 |
| 20260904151510 | 87 | 348 | 13.9 | 18.2 | 0.00 | 0.00 | 0.00 | 39 | 1015.4 |
| 20260904151013 | 87 | 19 | 7.8 | 18.2 | 0.00 | 0.00 | 0.00 | 40 | 1015.5 |
| 20260904150508 | 87 | 28 | 7.0 | 18.2 | 0.00 | 0.00 | 0.00 | 40 | 1015.4 |
| 20260904150008 | 87 | 355 | 9.6 | 20.9 | 0.00 | 0.00 | 0.00 | 40 | 1015.4 |
| 20260904145508 | 87 | 39 | 13.0 | 21.7 | 0.00 | 0.00 | 0.00 | 40 | 1015.4 |
| 20260904145008 | 87 | 17 | 13.9 | 21.7 | 0.00 | 0.00 | 0.00 | 40 | 1015.4 |
| 20260904144507 | 87 | 30 | 13.0 | 23.5 | 0.00 | 0.00 | 0.00 | 39 | 1015.4 |
| 20260904144009 | 87 | 9 | 9.6 | 23.5 | 0.00 | 0.00 | 0.00 | 39 | 1015.5 |
| 20260904143505 | 88 | 355 | 13.0 | 20.9 | 0.00 | 0.00 | 0.00 | 38 | 1015.3 |
| 20260904143014 | 89 | 66 | 13.0 | 17.4 | 0.00 | 0.00 | 0.00 | 38 | 1015.5 |
| 20260904142508 | 89 | 54 | 7.0 | 20.0 | 0.00 | 0.00 | 0.00 | 38 | 1015.3 |
| 20260904142005 | 88 | 32 | 12.2 | 20.0 | 0.00 | 0.00 | 0.00 | 39 | 1015.3 |
| 20260904141511 | 89 | 350 | 7.8 | 16.5 | 0.00 | 0.00 | 0.00 | 39 | 1015.2 |
| 20260904141003 | 88 | 5 | 9.6 | 20.0 | 0.00 | 0.00 | 0.00 | 39 | 1015.2 |
| 20260904140503 | 89 | 38 | 7.8 | 18.2 | 0.00 | 0.00 | 0.00 | 39 | 1015.3 |
| 20260904140002 | 88 | 31 | 9.6 | 18.2 | 0.00 | 0.00 | 0.00 | 39 | 1015.1 |
| 20260904135502 | 88 | 61 | 13.0 | 20.0 | 0.00 | 0.00 | 0.00 | 40 | 1015.3 |
| 20260904135001 | 88 | 5 | 13.0 | 20.0 | 0.00 | 0.00 | 0.00 | 41 | 1015.2 |
| 20260904134501 | 88 | 22 | 13.9 | 20.0 | 0.00 | 0.00 | 0.00 | 40 | 1015.3 |
| 20260904134100 | 88 | 360 | 10.4 | 20.9 | 0.00 | 0.00 | 0.00 | 39 | 1015.4 |
| 20260904133600 | 87 | 22 | 14.8 | 22.6 | 0.00 | 0.00 | 0.00 | 40 | 1015.4 |
| 20260904133059 | 88 | 355 | 11.3 | 20.0 | 0.00 | 0.00 | 0.00 | 41 | 1015.4 |
| 20260904132559 | 88 | 67 | 13.0 | 20.0 | 0.00 | 0.00 | 0.00 | 42 | 1015.5 |
| 20260904132058 | 88 | 19 | 12.2 | 22.6 | 0.00 | 0.00 | 0.00 | 42 | 1015.3 |
| 20260904131608 | 88 | 5 | 11.3 | 22.6 | 0.00 | 0.00 | 0.00 | 41 | 1015.3 |
| 20260904131100 | 89 | 18 | 10.4 | 19.1 | 0.00 | 0.00 | 0.00 | 42 | 1015.2 |
| 20260904130556 | 89 | 20 | 11.3 | 19.1 | 0.00 | 0.00 | 0.00 | 41 | 1015.3 |
| 20260904130056 | 88 | 80 | 9.6 | 20.0 | 0.00 | 0.00 | 0.00 | 41 | 1015.3 |
| 20260904125556 | 89 | 23 | 13.0 | 20.0 | 0.00 | 0.00 | 0.00 | 41 | 1015.4 |
| 20260904125056 | 89 | 41 | 10.4 | 18.2 | 0.00 | 0.00 | 0.00 | 40 | 1015.3 |
| 20260904124554 | 89 | 72 | 10.4 | 20.0 | 0.00 | 0.00 | 0.00 | 40 | 1015.1 |
| 20260904124053 | 89 | 23 | 8.7 | 20.0 | 0.00 | 0.00 | 0.00 | 41 | 1015.1 |
| 20260904123552 | 88 | 98 | 10.4 | 20.0 | 0.00 | 0.00 | 0.00 | 40 | 1015.2 |
| 20260904123052 | 88 | 81 | 9.6 | 25.2 | 0.00 | 0.00 | 0.00 | 42 | 1015.3 |
| 20260904122552 | 88 | 57 | 8.7 | 26.9 | 0.00 | 0.00 | 0.00 | 41 | 1015.4 |
| 20260904122051 | 88 | 71 | 13.9 | 21.7 | 0.00 | 0.00 | 0.00 | 40 | 1015.3 |
| 20260904121551 | 89 | 53 | 13.0 | 20.0 | 0.00 | 0.00 | 0.00 | 40 | 1015.3 |
| 20260904121050 | 89 | 47 | 10.4 | 20.0 | 0.00 | 0.00 | 0.00 | 40 | 1015.4 |
| 20260904120549 | 89 | 81 | 10.4 | 24.3 | 0.00 | 0.00 | 0.00 | 40 | 1015.5 |
| 20260904120049 | 89 | 15 | 5.2 | 24.3 | 0.00 | 0.00 | 0.00 | 40 | 1015.5 |
| 20260904115549 | 89 | 84 | 11.3 | 23.5 | 0.00 | 0.00 | 0.00 | 39 | 1015.4 |
| 20260904115048 | 89 | 5 | 6.1 | 18.2 | 0.00 | 0.00 | 0.00 | 39 | 1015.4 |
| 20260904114548 | 89 | 12 | 11.3 | 18.2 | 0.00 | 0.00 | 0.00 | 38 | 1015.6 |
| 20260904114047 | 90 | 360 | 9.6 | 18.2 | 0.00 | 0.00 | 0.00 | 37 | 1015.5 |
| 20260904113546 | 89 | 19 | 7.0 | 17.4 | 0.00 | 0.00 | 0.00 | 39 | 1015.4 |
| 20260904113046 | 89 | 45 | 9.6 | 17.4 | 0.00 | 0.00 | 0.00 | 39 | 1015.4 |
| 20260904112547 | 89 | 48 | 5.2 | 18.2 | 0.00 | 0.00 | 0.00 | 40 | 1015.5 |
| 20260904112044 | 88 | 67 | 12.2 | 21.7 | 0.00 | 0.00 | 0.00 | 40 | 1015.6 |
| 20260904111543 | 88 | 20 | 14.8 | 21.7 | 0.00 | 0.00 | 0.00 | 40 | 1015.7 |
| 20260904111043 | 88 | 5 | 12.2 | 20.0 | 0.00 | 0.00 | 0.00 | 40 | 1015.6 |
| 20260904110544 | 88 | 61 | 6.1 | 22.6 | 0.00 | 0.00 | 0.00 | 40 | 1015.7 |
| 20260904110043 | 87 | 67 | 10.4 | 22.6 | 0.00 | 0.00 | 0.00 | 41 | 1015.9 |
| 20260904105543 | 87 | 360 | 13.0 | 20.9 | 0.00 | 0.00 | 0.00 | 40 | 1015.9 |
| 20260904105041 | 87 | 19 | 12.2 | 20.0 | 0.00 | 0.00 | 0.00 | 40 | 1016.0 |
| 20260904104540 | 87 | 73 | 13.0 | 23.5 | 0.00 | 0.00 | 0.00 | 42 | 1016.1 |
| 20260904104040 | 87 | 26 | 14.8 | 23.5 | 0.00 | 0.00 | 0.00 | 41 | 1016.0 |
| 20260904103540 | 88 | 31 | 9.6 | 20.0 | 0.00 | 0.00 | 0.00 | 41 | 1015.9 |
| 20260904103052 | 87 | 40 | 9.6 | 22.6 | 0.00 | 0.00 | 0.00 | 43 | 1016.0 |
| 20260904102540 | 87 | 89 | 13.9 | 21.7 | 0.00 | 0.00 | 0.00 | 42 | 1015.8 |
| 20260904102039 | 87 | 82 | 10.4 | 20.9 | 0.00 | 0.00 | 0.00 | 44 | 1015.7 |
| 20260904101548 | 87 | 18 | 11.3 | 24.3 | 0.00 | 0.00 | 0.00 | 45 | 1015.8 |
| 20260904101039 | 87 | 38 | 14.8 | 24.3 | 0.00 | 0.00 | 0.00 | 45 | 1016.0 |
| 20260904100539 | 87 | 59 | 13.0 | 20.9 | 0.00 | 0.00 | 0.00 | 48 | 1016.0 |
| 20260904100038 | 87 | 67 | 11.3 | 21.7 | 0.00 | 0.00 | 0.00 | 45 | 1016.1 |
| 20260904095539 | 87 | 33 | 13.0 | 22.6 | 0.00 | 0.00 | 0.00 | 44 | 1016.1 |
| 20260904095039 | 87 | 16 | 12.2 | 22.6 | 0.00 | 0.00 | 0.00 | 44 | 1016.1 |
| 20260904094549 | 87 | 31 | 12.2 | 24.3 | 0.00 | 0.00 | 0.00 | 45 | 1016.0 |
| 20260904094036 | 86 | 11 | 16.5 | 24.3 | 0.00 | 0.00 | 0.00 | 46 | 1016.0 |
| 20260904093538 | 87 | 17 | 13.0 | 20.0 | 0.00 | 0.00 | 0.00 | 46 | 1016.1 |
| 20260904093035 | 87 | 28 | 13.0 | 20.0 | 0.00 | 0.00 | 0.00 | 47 | 1016.1 |
| 20260904092535 | 86 | 39 | 12.2 | 20.9 | 0.00 | 0.00 | 0.00 | 48 | 1016.0 |
| 20260904092035 | 87 | 11 | 11.3 | 22.6 | 0.00 | 0.00 | 0.00 | 48 | 1015.8 |
| 20260904091535 | 87 | 19 | 11.3 | 23.5 | 0.00 | 0.00 | 0.00 | 48 | 1015.9 |
| 20260904091033 | 86 | 351 | 10.4 | 23.5 | 0.00 | 0.00 | 0.00 | 49 | 1015.9 |
| 20260904090530 | 86 | 355 | 15.6 | 21.7 | 0.00 | 0.00 | 0.00 | 49 | 1015.9 |
| 20260904090033 | 87 | 34 | 10.4 | 18.2 | 0.00 | 0.00 | 0.00 | 48 | 1016.0 |
| 20260904085529 | 87 | 11 | 6.1 | 18.2 | 0.00 | 0.00 | 0.00 | 49 | 1015.9 |
| 20260904085027 | 86 | 42 | 13.0 | 19.1 | 0.00 | 0.00 | 0.00 | 49 | 1016.0 |
| 20260904084530 | 85 | 19 | 10.4 | 21.7 | 0.00 | 0.00 | 0.00 | 50 | 1016.0 |
| 20260904084025 | 85 | 9 | 13.9 | 21.7 | 0.00 | 0.00 | 0.00 | 50 | 1016.0 |
| 20260904083531 | 85 | 5 | 14.8 | 24.3 | 0.00 | 0.00 | 0.00 | 50 | 1016.0 |
| 20260904083036 | 85 | 20 | 14.8 | 24.3 | 0.00 | 0.00 | 0.00 | 50 | 1016.1 |
| 20260904082523 | 85 | 30 | 8.7 | 20.0 | 0.00 | 0.00 | 0.00 | 50 | 1016.0 |
| 20260904082023 | 85 | 34 | 9.6 | 20.0 | 0.00 | 0.00 | 0.00 | 51 | 1015.8 |
| 20260904081522 | 84 | 72 | 10.4 | 23.5 | 0.00 | 0.00 | 0.00 | 51 | 1015.9 |
| 20260904081025 | 85 | 40 | 12.2 | 23.5 | 0.00 | 0.00 | 0.00 | 49 | 1015.9 |
| 20260904080524 | 86 | 17 | 13.0 | 20.0 | 0.00 | 0.00 | 0.00 | 48 | 1015.8 |
| 20260904080024 | 85 | 349 | 6.1 | 15.6 | 0.00 | 0.00 | 0.00 | 50 | 1015.7 |
| 20260904075519 | 85 | 86 | 9.6 | 19.1 | 0.00 | 0.00 | 0.00 | 50 | 1015.8 |
| 20260904075018 | 85 | 79 | 9.6 | 19.1 | 0.00 | 0.00 | 0.00 | 50 | 1015.7 |
| 20260904074516 | 85 | 75 | 9.6 | 16.5 | 0.00 | 0.00 | 0.00 | 51 | 1015.7 |
| 20260904074014 | 85 | 61 | 10.4 | 16.5 | 0.00 | 0.00 | 0.00 | 51 | 1015.6 |
| 20260904073513 | 84 | 26 | 7.8 | 16.5 | 0.00 | 0.00 | 0.00 | 52 | 1015.5 |
| 20260904073012 | 84 | 13 | 9.6 | 15.6 | 0.00 | 0.00 | 0.00 | 51 | 1015.5 |
| 20260904072510 | 84 | 47 | 7.0 | 15.6 | 0.00 | 0.00 | 0.00 | 50 | 1015.5 |
| 20260904072013 | 84 | 46 | 8.7 | 20.0 | 0.00 | 0.00 | 0.00 | 51 | 1015.5 |
| 20260904071510 | 84 | 30 | 7.8 | 20.0 | 0.00 | 0.00 | 0.00 | 50 | 1015.4 |
| 20260904071007 | 84 | 9 | 10.4 | 20.9 | 0.00 | 0.00 | 0.00 | 50 | 1015.5 |
| 20260904070509 | 84 | 24 | 10.4 | 20.9 | 0.00 | 0.00 | 0.00 | 50 | 1015.4 |
| 20260904070004 | 84 | 46 | 7.0 | 19.1 | 0.00 | 0.00 | 0.00 | 49 | 1015.4 |
| 20260904065503 | 84 | 22 | 11.3 | 19.1 | 0.00 | 0.00 | 0.00 | 49 | 1015.3 |
| 20260904065001 | 84 | 55 | 9.6 | 19.1 | 0.00 | 0.00 | 0.00 | 49 | 1015.2 |
| 20260904064604 | 84 | 24 | 11.3 | 20.0 | 0.00 | 0.00 | 0.00 | 48 | 1015.0 |
| 20260904064100 | 84 | 11 | 13.0 | 20.0 | 0.00 | 0.00 | 0.00 | 48 | 1015.0 |
| 20260904063556 | 84 | 13 | 10.4 | 18.2 | 0.00 | 0.00 | 0.00 | 48 | 1014.9 |
| 20260904063105 | 84 | 20 | 10.4 | 18.2 | 0.00 | 0.00 | 0.00 | 49 | 1014.8 |
| 20260904062553 | 84 | 360 | 8.7 | 18.2 | 0.00 | 0.00 | 0.00 | 49 | 1014.8 |
| 20260904062051 | 83 | 82 | 7.8 | 18.2 | 0.00 | 0.00 | 0.00 | 49 | 1014.8 |
| 20260904061550 | 83 | 34 | 7.8 | 15.6 | 0.00 | 0.00 | 0.00 | 49 | 1014.8 |
| 20260904061050 | 83 | 38 | 10.4 | 15.6 | 0.00 | 0.00 | 0.00 | 50 | 1014.8 |
| 20260904060548 | 83 | 355 | 6.1 | 11.3 | 0.00 | 0.00 | 0.00 | 50 | 1014.9 |
| 20260904060100 | 83 | 184 | 0.9 | 9.6 | 0.00 | 0.00 | 0.00 | 49 | 1014.9 |
| 20260904055545 | 83 | 13 | 1.7 | 9.6 | 0.00 | 0.00 | 0.00 | 49 | 1015.0 |
| 20260904055044 | 83 | 11 | 4.3 | 14.8 | 0.00 | 0.00 | 0.00 | 50 | 1015.0 |
| 20260904054555 | 82 | 355 | 5.2 | 14.8 | 0.00 | 0.00 | 0.00 | 51 | 1015.1 |
| 20260904054040 | 81 | 270 | 1.7 | 4.3 | 0.00 | 0.00 | 0.00 | 54 | 1015.0 |
| 20260904053539 | 80 | 273 | 1.7 | 4.3 | 0.00 | 0.00 | 0.00 | 55 | 1015.0 |
| 20260904053044 | 80 | 198 | 1.7 | 3.5 | 0.00 | 0.00 | 0.00 | 56 | 1014.9 |
| 20260904052537 | 79 | 178 | 0.9 | 4.3 | 0.00 | 0.00 | 0.00 | 58 | 1014.9 |
| 20260904052036 | 79 | 196 | 2.6 | 6.1 | 0.00 | 0.00 | 0.00 | 58 | 1014.9 |
| 20260904051536 | 79 | 167 | 2.6 | 7.0 | 0.00 | 0.00 | 0.00 | 57 | 1014.8 |
| 20260904051032 | 79 | 217 | 0.9 | 4.3 | 0.00 | 0.00 | 0.00 | 56 | 1014.6 |
| 20260904050531 | 79 | 179 | 0.9 | 2.6 | 0.00 | 0.00 | 0.00 | 57 | 1014.7 |
| 20260904050037 | 79 | 177 | 0.0 | 1.7 | 0.00 | 0.00 | 0.00 | 58 | 1014.8 |
| 20260904045533 | 78 | 139 | 0.0 | 3.5 | 0.00 | 0.00 | 0.00 | 58 | 1014.9 |
| 20260904045028 | 78 | 139 | 0.9 | 5.2 | 0.00 | 0.00 | 0.00 | 58 | 1014.8 |
| 20260904044527 | 78 | 169 | 2.6 | 6.1 | 0.00 | 0.00 | 0.00 | 59 | 1014.7 |
| 20260904044025 | 77 | 188 | 1.7 | 10.4 | 0.00 | 0.00 | 0.00 | 60 | 1014.8 |
| 20260904043525 | 77 | 188 | 7.0 | 10.4 | 0.00 | 0.00 | 0.00 | 60 | 1014.7 |
| 20260904043037 | 77 | 177 | 1.7 | 6.1 | 0.00 | 0.00 | 0.00 | 60 | 1014.9 |
| 20260904042520 | 77 | 186 | 2.6 | 7.0 | 0.00 | 0.00 | 0.00 | 60 | 1014.9 |
| 20260904042020 | 77 | 170 | 2.6 | 7.0 | 0.00 | 0.00 | 0.00 | 60 | 1014.9 |
| 20260904041518 | 77 | 188 | 3.5 | 5.2 | 0.00 | 0.00 | 0.00 | 59 | 1014.8 |
| 20260904041017 | 77 | 166 | 2.6 | 6.1 | 0.00 | 0.00 | 0.00 | 59 | 1014.7 |
| 20260904040517 | 77 | 161 | 3.5 | 5.2 | 0.00 | 0.00 | 0.00 | 58 | 1014.7 |
| 20260904040021 | 77 | 170 | 3.5 | 5.2 | 0.00 | 0.00 | 0.00 | 58 | 1014.7 |
| 20260904035518 | 77 | 188 | 1.7 | 3.5 | 0.00 | 0.00 | 0.00 | 57 | 1014.6 |
| 20260904035015 | 77 | 192 | 1.7 | 3.5 | 0.00 | 0.00 | 0.00 | 56 | 1014.5 |
| 20260904034520 | 77 | 214 | 0.0 | 3.5 | 0.00 | 0.00 | 0.00 | 56 | 1014.6 |
| 20260904034015 | 77 | 244 | 1.7 | 4.3 | 0.00 | 0.00 | 0.00 | 56 | 1014.6 |
| 20260904033518 | 77 | 257 | 2.6 | 4.3 | 0.00 | 0.00 | 0.00 | 56 | 1014.6 |
| 20260904033022 | 77 | 42 | 0.0 | 2.6 | 0.00 | 0.00 | 0.00 | 55 | 1014.6 |
| 20260904032514 | 77 | 15 | 0.0 | 2.6 | 0.00 | 0.00 | 0.00 | 55 | 1014.7 |
| 20260904032014 | 77 | 351 | 0.9 | 4.3 | 0.00 | 0.00 | 0.00 | 55 | 1014.6 |
| 20260904031514 | 77 | 172 | 1.7 | 5.2 | 0.00 | 0.00 | 0.00 | 56 | 1014.5 |
| 20260904031013 | 77 | 355 | 2.6 | 5.2 | 0.00 | 0.00 | 0.00 | 56 | 1014.7 |
| 20260904030514 | 77 | 157 | 3.5 | 5.2 | 0.00 | 0.00 | 0.00 | 56 | 1014.4 |
| 20260904030013 | 77 | 299 | 0.0 | 3.5 | 0.00 | 0.00 | 0.00 | 56 | 1014.4 |
| 20260904025512 | 77 | 192 | 1.7 | 4.3 | 0.00 | 0.00 | 0.00 | 55 | 1014.4 |
| 20260904025012 | 77 | 194 | 0.9 | 5.2 | 0.00 | 0.00 | 0.00 | 55 | 1014.4 |
| 20260904024512 | 77 | 159 | 2.6 | 6.1 | 0.00 | 0.00 | 0.00 | 55 | 1014.3 |
| 20260904024014 | 77 | 141 | 2.6 | 6.1 | 0.00 | 0.00 | 0.00 | 55 | 1014.4 |
| 20260904023512 | 77 | 136 | 3.5 | 6.1 | 0.00 | 0.00 | 0.00 | 55 | 1014.4 |
| 20260904023011 | 77 | 151 | 3.5 | 7.0 | 0.00 | 0.00 | 0.00 | 55 | 1014.3 |
| 20260904022511 | 77 | 174 | 5.2 | 7.0 | 0.00 | 0.00 | 0.00 | 55 | 1014.4 |
| 20260904022010 | 77 | 123 | 0.9 | 7.8 | 0.00 | 0.00 | 0.00 | 55 | 1014.4 |
| 20260904021515 | 77 | 132 | 4.3 | 7.8 | 0.00 | 0.00 | 0.00 | 55 | 1014.5 |
| 20260904021010 | 77 | 184 | 2.6 | 6.1 | 0.00 | 0.00 | 0.00 | 54 | 1014.4 |
| 20260904020510 | 77 | 171 | 2.6 | 4.3 | 0.00 | 0.00 | 0.00 | 54 | 1014.4 |
| 20260904020009 | 77 | 195 | 2.6 | 3.5 | 0.00 | 0.00 | 0.00 | 54 | 1014.4 |
| 20260904015509 | 77 | 318 | 0.0 | 2.6 | 0.00 | 0.00 | 0.00 | 55 | 1014.5 |
| 20260904015009 | 77 | 323 | 0.0 | 2.6 | 0.00 | 0.00 | 0.00 | 54 | 1014.5 |
| 20260904014509 | 77 | 227 | 0.9 | 2.6 | 0.00 | 0.00 | 0.00 | 54 | 1014.5 |
| 20260904014008 | 77 | 268 | 0.0 | 2.6 | 0.00 | 0.00 | 0.00 | 54 | 1014.5 |
| 20260904013509 | 77 | 269 | 0.0 | 3.5 | 0.00 | 0.00 | 0.00 | 54 | 1014.5 |
| 20260904013008 | 77 | 281 | 0.0 | 4.3 | 0.00 | 0.00 | 0.00 | 54 | 1014.5 |
| 20260904012508 | 77 | 254 | 3.5 | 4.3 | 0.00 | 0.00 | 0.00 | 54 | 1014.5 |
| 20260904012008 | 77 | 241 | 1.7 | 3.5 | 0.00 | 0.00 | 0.00 | 53 | 1014.5 |
| 20260904011508 | 78 | 155 | 0.0 | 2.6 | 0.00 | 0.00 | 0.00 | 53 | 1014.5 |
| 20260904011011 | 78 | 155 | 1.7 | 4.3 | 0.00 | 0.00 | 0.00 | 53 | 1014.5 |
| 20260904010506 | 78 | 161 | 1.7 | 5.2 | 0.00 | 0.00 | 0.00 | 53 | 1014.4 |
| 20260904010009 | 78 | 163 | 3.5 | 5.2 | 0.00 | 0.00 | 0.00 | 53 | 1014.5 |
| 20260904005506 | 78 | 198 | 0.0 | 0.0 | 0.00 | 0.00 | 0.00 | 53 | 1014.5 |
| 20260904005006 | 77 | 292 | 0.0 | 0.0 | 0.00 | 0.00 | 0.00 | 53 | 1014.5 |
| 20260904004506 | 77 | 293 | 0.0 | 0.0 | 0.00 | 0.00 | 0.00 | 53 | 1014.5 |
| 20260904004005 | 77 | 296 | 0.0 | 1.7 | 0.00 | 0.00 | 0.00 | 53 | 1014.5 |
| 20260904003505 | 77 | 296 | 0.0 | 1.7 | 0.00 | 0.00 | 0.00 | 54 | 1014.3 |
| 20260904003004 | 76 | 332 | 0.0 | 0.9 | 0.00 | 0.00 | 0.00 | 54 | 1014.4 |
| 20260904002504 | 76 | 339 | 0.0 | 1.7 | 0.00 | 0.00 | 0.00 | 55 | 1014.4 |
| 20260904002004 | 76 | 340 | 0.0 | 1.7 | 0.00 | 0.00 | 0.00 | 55 | 1014.4 |
| 20260904001503 | 76 | 342 | 0.0 | 3.5 | 0.00 | 0.00 | 0.00 | 55 | 1014.5 |
| 20260904001002 | 76 | 347 | 0.0 | 3.5 | 0.00 | 0.00 | 0.00 | 54 | 1014.5 |
| 20260904000501 | 77 | 77 | 0.0 | 0.0 | 0.00 | 0.00 | 0.00 | 53 | 1014.6 |
| 20260904000002 | 77 | 76 | 0.0 | 0.0 | 0.00 | 0.00 | 0.00 | 52 | 1014.5 |
| 20260903235602 | 77 | 76 | 0.0 | 0.0 | 0.00 | 0.00 | 0.00 | 52 | 1014.5 |
| 20260903235059 | 78 | 88 | 0.0 | 3.5 | 0.00 | 0.00 | 0.00 | 51 | 1014.6 |
| 20260903234559 | 78 | 102 | 0.0 | 3.5 | 0.00 | 0.00 | 0.00 | 50 | 1014.6 |
| 20260903234059 | 78 | 104 | 0.9 | 3.5 | 0.00 | 0.00 | 0.00 | 49 | 1014.5 |
| 20260903233557 | 79 | 116 | 0.9 | 3.5 | 0.00 | 0.00 | 0.00 | 48 | 1014.5 |
| 20260903233102 | 79 | 105 | 1.7 | 3.5 | 0.00 | 0.00 | 0.00 | 48 | 1014.6 |
| 20260903232557 | 78 | 71 | 1.7 | 3.5 | 0.00 | 0.00 | 0.00 | 48 | 1014.5 |
| 20260903232058 | 78 | 121 | 0.0 | 2.6 | 0.00 | 0.00 | 0.00 | 48 | 1014.5 |
| 20260903231557 | 78 | 121 | 0.0 | 2.6 | 0.00 | 0.00 | 0.00 | 48 | 1014.6 |
| 20260903231056 | 78 | 123 | 0.0 | 2.6 | 0.00 | 0.00 | 0.00 | 48 | 1014.6 |
| 20260903230555 | 77 | 77 | 0.0 | 2.6 | 0.00 | 0.00 | 0.00 | 48 | 1014.6 |
| 20260903225555 | 78 | 101 | 0.0 | 1.7 | 0.00 | 0.00 | 0.00 | 46 | 1014.6 |
| 20260903225054 | 78 | 98 | 0.0 | 0.0 | 0.00 | 0.00 | 0.00 | 46 | 1014.7 |
| 20260903224556 | 78 | 97 | 0.0 | 0.0 | 0.00 | 0.00 | 0.00 | 47 | 1014.7 |
| 20260903224054 | 78 | 97 | 0.0 | 0.9 | 0.00 | 0.00 | 0.00 | 47 | 1014.6 |
| 20260903223553 | 77 | 72 | 0.0 | 0.9 | 0.00 | 0.00 | 0.00 | 48 | 1014.6 |
| 20260903223105 | 78 | 73 | 0.0 | 2.6 | 0.00 | 0.00 | 0.00 | 47 | 1014.7 |
| 20260903222550 | 79 | 72 | 0.0 | 2.6 | 0.00 | 0.00 | 0.00 | 46 | 1014.6 |
| 20260903222051 | 79 | 63 | 0.0 | 2.6 | 0.00 | 0.00 | 0.00 | 46 | 1014.7 |
| 20260903221550 | 79 | 49 | 0.9 | 2.6 | 0.00 | 0.00 | 0.00 | 45 | 1014.8 |
| 20260903221050 | 79 | 46 | 0.0 | 3.5 | 0.00 | 0.00 | 0.00 | 46 | 1014.8 |
| 20260903220550 | 79 | 42 | 0.0 | 4.3 | 0.00 | 0.00 | 0.00 | 46 | 1014.7 |
| 20260903220049 | 79 | 74 | 1.7 | 3.5 | 0.00 | 0.00 | 0.00 | 46 | 1014.8 |
| 20260903215549 | 79 | 143 | 0.0 | 0.9 | 0.00 | 0.00 | 0.00 | 46 | 1014.8 |
| 20260903215047 | 79 | 146 | 0.0 | 1.7 | 0.00 | 0.00 | 0.00 | 46 | 1014.7 |
| 20260903214551 | 80 | 148 | 0.0 | 2.6 | 0.00 | 0.00 | 0.00 | 44 | 1014.7 |
| 20260903214046 | 80 | 148 | 0.9 | 2.6 | 0.00 | 0.00 | 0.00 | 43 | 1014.6 |
| 20260903213550 | 80 | 146 | 0.0 | 2.6 | 0.00 | 0.00 | 0.00 | 43 | 1014.6 |
| 20260903213046 | 80 | 146 | 0.9 | 3.5 | 0.00 | 0.00 | 0.00 | 43 | 1014.6 |
| 20260903212544 | 79 | 119 | 0.9 | 3.5 | 0.00 | 0.00 | 0.00 | 45 | 1014.6 |
| 20260903212045 | 80 | 69 | 0.0 | 0.9 | 0.00 | 0.00 | 0.00 | 45 | 1014.7 |
| 20260903211601 | 80 | 69 | 0.0 | 0.9 | 0.00 | 0.00 | 0.00 | 45 | 1014.7 |
| 20260903211043 | 80 | 72 | 0.0 | 2.6 | 0.00 | 0.00 | 0.00 | 44 | 1014.6 |
| 20260903210542 | 79 | 72 | 0.0 | 3.5 | 0.00 | 0.00 | 0.00 | 45 | 1014.6 |
| 20260903210041 | 79 | 65 | 0.9 | 4.3 | 0.00 | 0.00 | 0.00 | 45 | 1014.6 |
| 20260903205540 | 80 | 10 | 1.7 | 2.6 | 0.00 | 0.00 | 0.00 | 44 | 1014.7 |
| 20260903205040 | 81 | 151 | 0.0 | 2.6 | 0.00 | 0.00 | 0.00 | 44 | 1014.6 |
| 20260903204540 | 81 | 150 | 0.0 | 2.6 | 0.00 | 0.00 | 0.00 | 43 | 1014.6 |
| 20260903204041 | 80 | 56 | 0.0 | 2.6 | 0.00 | 0.00 | 0.00 | 43 | 1014.7 |
| 20260903203539 | 80 | 53 | 0.0 | 2.6 | 0.00 | 0.00 | 0.00 | 43 | 1014.5 |
| 20260903203040 | 81 | 351 | 0.0 | 1.7 | 0.00 | 0.00 | 0.00 | 43 | 1014.7 |
| 20260903202542 | 81 | 342 | 0.0 | 1.7 | 0.00 | 0.00 | 0.00 | 43 | 1014.6 |
| 20260903202039 | 81 | 299 | 0.0 | 0.9 | 0.00 | 0.00 | 0.00 | 43 | 1014.7 |
| 20260903201539 | 81 | 301 | 0.0 | 0.9 | 0.00 | 0.00 | 0.00 | 43 | 1014.7 |
| 20260903201038 | 81 | 301 | 0.0 | 0.9 | 0.00 | 0.00 | 0.00 | 44 | 1014.7 |
| 20260903200539 | 81 | 302 | 0.0 | 1.7 | 0.00 | 0.00 | 0.00 | 44 | 1014.8 |
| 20260903200040 | 81 | 308 | 0.0 | 3.5 | 0.00 | 0.00 | 0.00 | 44 | 1014.8 |
| 20260903195538 | 80 | 311 | 0.9 | 3.5 | 0.00 | 0.00 | 0.00 | 44 | 1014.7 |
| 20260903195038 | 81 | 355 | 1.7 | 5.2 | 0.00 | 0.00 | 0.00 | 43 | 1014.6 |
| 20260903194539 | 81 | 13 | 1.7 | 7.0 | 0.00 | 0.00 | 0.00 | 43 | 1014.5 |
| 20260903194037 | 81 | 52 | 3.5 | 8.7 | 0.00 | 0.00 | 0.00 | 43 | 1014.6 |
| 20260903193537 | 81 | 86 | 3.5 | 9.6 | 0.00 | 0.00 | 0.00 | 43 | 1014.6 |
| 20260903193037 | 81 | 90 | 3.5 | 9.6 | 0.00 | 0.00 | 0.00 | 43 | 1014.5 |
| 20260903192537 | 81 | 69 | 5.2 | 9.6 | 0.00 | 0.00 | 0.00 | 43 | 1014.5 |
| 20260903192036 | 81 | 71 | 2.6 | 8.7 | 0.00 | 0.00 | 0.00 | 43 | 1014.5 |
| 20260903191536 | 81 | 87 | 3.5 | 12.2 | 0.00 | 0.00 | 0.00 | 43 | 1014.5 |
| 20260903191040 | 82 | 65 | 5.2 | 10.4 | 0.00 | 0.00 | 0.00 | 43 | 1014.5 |
| 20260903190536 | 82 | 59 | 4.3 | 9.6 | 0.00 | 0.00 | 0.00 | 43 | 1014.5 |
| 20260903190035 | 82 | 55 | 5.2 | 11.3 | 0.00 | 0.00 | 0.00 | 43 | 1014.5 |
| 20260903185536 | 82 | 76 | 1.7 | 10.4 | 0.00 | 0.00 | 0.00 | 43 | 1014.4 |
| 20260903185036 | 82 | 103 | 5.2 | 10.4 | 0.00 | 0.00 | 0.00 | 43 | 1014.3 |
| 20260903184540 | 82 | 74 | 5.2 | 9.6 | 0.00 | 0.00 | 0.00 | 43 | 1014.3 |
| 20260903184035 | 82 | 86 | 4.3 | 10.4 | 0.00 | 0.00 | 0.00 | 43 | 1014.2 |
| 20260903183534 | 82 | 78 | 5.2 | 11.3 | 0.00 | 0.00 | 0.00 | 43 | 1014.2 |
| 20260903183035 | 83 | 80 | 5.2 | 12.2 | 0.00 | 0.00 | 0.00 | 43 | 1014.1 |
| 20260903182535 | 83 | 101 | 5.2 | 12.2 | 0.00 | 0.00 | 0.00 | 43 | 1014.1 |
| 20260903182035 | 83 | 98 | 7.0 | 11.3 | 0.00 | 0.00 | 0.00 | 43 | 1014.1 |
| 20260903181534 | 83 | 105 | 7.0 | 11.3 | 0.00 | 0.00 | 0.00 | 43 | 1014.0 |
| 20260903181036 | 83 | 88 | 7.8 | 13.0 | 0.00 | 0.00 | 0.00 | 43 | 1014.1 |
| 20260903180535 | 83 | 59 | 8.7 | 13.0 | 0.00 | 0.00 | 0.00 | 43 | 1014.0 |
| 20260903180037 | 83 | 80 | 7.0 | 11.3 | 0.00 | 0.00 | 0.00 | 43 | 1014.0 |
| 20260903175533 | 83 | 69 | 6.1 | 11.3 | 0.00 | 0.00 | 0.00 | 43 | 1014.1 |
| 20260903175033 | 83 | 128 | 7.0 | 11.3 | 0.00 | 0.00 | 0.00 | 43 | 1014.0 |
| 20260903174537 | 83 | 57 | 6.1 | 11.3 | 0.00 | 0.00 | 0.00 | 43 | 1014.0 |